Hourly Data Report for June 17, 2020

BORDEN AWOS
ONTARIO
Current Station Operator: DND

44°16'20.000" N
79°54'42.000" W
222.50 m
611B002
71534
YBN

Download Data

Hourly Data (June 2020)
Hourly Data Report for June 17, 2020
TIME
LST
Temp Definition
°C
Dew Point Definition
°C
Rel Hum Definition
%
Precip. Amount Definition
mm

Wind Dir Definition
10's deg

Wind Spd Definition
km/h
Visibility Definition
km
Stn Press Definition
kPa
Hmdx Definition


Wind Chill Definition


Weather Definition


00:00 8.0 6.7 92     0 14.5 99.86     LegendNANA
01:00 7.0 6.2 95   19 4 14.5 99.83     LegendNANA
02:00 6.9 6.3 96     0 14.5 99.83     LegendNANA
03:00 5.6 5.6 100     0 14.5 99.84     LegendNANA
04:00 5.1 4.2 94     0 14.5 99.86     LegendNANA
05:00 4.5 3.8 95   24 4 14.5 99.87     LegendNANA
06:00 9.0 8.2 95     0 14.5 99.89     LegendNANA
07:00 14.2 9.0 71   18 4 14.5 99.88     LegendNANA
08:00 19.8 9.2 50     0 14.5 99.87     LegendNANA
09:00 22.9 9.4 42   17 7 LegendMM 99.86     LegendNANA
10:00 23.9 9.8 41   18 6 LegendMM 99.83 25   LegendNANA
11:00 25.0 10.0 39   1 6 14.5 99.81 26   LegendNANA
12:00 26.7 9.4 34   14 7 14.5 99.75 28   LegendNANA
13:00 27.4 10.6 35   12 11 14.5 99.71 29   LegendNANA
14:00 28.4 10.0 32   12 11 14.5 99.67 30   LegendNANA
15:00 28.5 10.3 32   21 15 14.5 99.60 30   LegendNANA
16:00 28.5 10.2 32   23 6 14.5 99.52 30   LegendNANA
17:00 27.8 10.1 33   30 13 14.5 99.48 29   LegendNANA
18:00 26.7 11.6 39   35 11 14.5 99.45 29   LegendNANA
19:00 24.1 10.5 42   34 6 14.5 99.47 26   LegendNANA
20:00 20.0 11.0 56     0 14.5 99.47     LegendNANA
21:00 15.5 10.4 72     0 14.5 99.49     LegendNANA
22:00 13.9 10.0 77     0 14.5 99.52     LegendNANA
23:00 11.6 9.4 86     0 14.5 99.49     LegendNANA

Notes on Data Quality.

Legend

  • E = Estimated
  • M = Missing
  • NA = Not Available*
  • [empty] = Indicates an unobserved value
Date modified: